Time,TemperatureF,DewpointF,PressureIn,WindDirection,WindDirectionDegrees,WindSpeedMPH,WindSpeedGustMPH,Humidity,HourlyPrecipIn,Conditions,Clouds,dailyrainin,SoftwareType,DateUTC
2013-02-12 00:02:00,61.0,-99.9,30.07,NNE,33,12.0,14.0,-999,-99.99,,,-99.99,,2013-02-12 06:02:00,
2013-02-12 00:12:00,61.0,-99.9,30.07,NNE,33,12.0,14.0,-999,-99.99,,,-99.99,,2013-02-12 06:12:00,
2013-02-12 00:22:00,61.0,-99.9,30.07,NNE,33,12.0,14.0,-999,-99.99,,,-99.99,,2013-02-12 06:22:00,
2013-02-12 00:42:00,60.0,-99.9,30.07,NNE,22,13.0,15.0,-999,-99.99,,,-99.99,,2013-02-12 06:42:00,
2013-02-12 00:52:00,60.0,-99.9,30.06,NNE,20,15.0,18.0,-999,-99.99,,,-99.99,,2013-02-12 06:52:00,
2013-02-12 01:02:00,59.0,-99.9,30.06,NNE,19,16.0,18.0,-999,-99.99,,,-99.99,,2013-02-12 07:02:00,
2013-02-12 01:12:00,59.0,-99.9,30.07,NNE,16,15.0,18.0,-999,-99.99,,,-99.99,,2013-02-12 07:12:00,
2013-02-12 01:22:00,59.0,-99.9,30.06,NNE,26,16.0,17.0,-999,-99.99,,,-99.99,,2013-02-12 07:22:00,
2013-02-12 01:32:00,59.0,-99.9,30.06,NNE,26,15.0,18.0,-999,-99.99,,,-99.99,,2013-02-12 07:32:00,
2013-02-12 01:42:00,59.0,-99.9,30.06,NNE,26,15.0,18.0,-999,-99.99,,,-99.99,,2013-02-12 07:42:00,
2013-02-12 01:52:00,59.0,-99.9,30.06,NNE,26,15.0,18.0,-999,-99.99,,,-99.99,,2013-02-12 07:52:00,
2013-02-12 02:11:00,59.0,-99.9,30.06,NNE,20,13.0,16.0,-999,-99.99,,,-99.99,,2013-02-12 08:11:00,
2013-02-12 02:22:00,59.0,-99.9,30.05,NNE,33,15.0,16.0,-999,-99.99,,,-99.99,,2013-02-12 08:22:00,
2013-02-12 02:32:00,59.0,-99.9,30.05,NE,39,14.0,15.0,-999,-99.99,,,-99.99,,2013-02-12 08:32:00,
2013-02-12 02:42:00,59.0,-99.9,30.05,NE,36,13.0,16.0,-999,-99.99,,,-99.99,,2013-02-12 08:42:00,
2013-02-12 02:52:00,59.0,-99.9,30.05,NNE,33,13.0,15.0,-999,-99.99,,,-99.99,,2013-02-12 08:52:00,
2013-02-12 03:02:00,59.0,-99.9,30.04,NE,37,13.0,15.0,-999,-99.99,,,-99.99,,2013-02-12 09:02:00,
2013-02-12 03:11:00,59.0,-99.9,30.04,NE,35,13.0,15.0,-999,-99.99,,,-99.99,,2013-02-12 09:11:00,
2013-02-12 03:22:00,59.0,-99.9,30.05,NNE,28,13.0,15.0,-999,-99.99,,,-99.99,,2013-02-12 09:22:00,
2013-02-12 03:32:00,59.0,-99.9,30.04,NE,34,15.0,17.0,-999,-99.99,,,-99.99,,2013-02-12 09:32:00,
2013-02-12 03:42:00,59.0,-99.9,30.04,NNE,29,15.0,17.0,-999,-99.99,,,-99.99,,2013-02-12 09:42:00,
2013-02-12 03:52:00,59.0,-99.9,30.04,NNE,29,16.0,18.0,-999,-99.99,,,-99.99,,2013-02-12 09:52:00,
2013-02-12 04:02:00,59.0,-99.9,30.04,NNE,20,15.0,18.0,-999,-99.99,,,-99.99,,2013-02-12 10:02:00,
2013-02-12 04:11:00,59.0,-99.9,30.04,NNE,26,17.0,19.0,-999,-99.99,,,-99.99,,2013-02-12 10:11:00,
2013-02-12 04:22:00,59.0,-99.9,30.04,NNE,23,19.0,21.0,-999,-99.99,,,-99.99,,2013-02-12 10:22:00,
2013-02-12 04:32:00,58.0,-99.9,30.04,NNE,18,19.0,23.0,-999,-99.99,,,-99.99,,2013-02-12 10:32:00,
2013-02-12 04:43:00,58.0,-99.9,30.04,NNE,17,22.0,24.0,-999,-99.99,,,-99.99,,2013-02-12 10:43:00,
2013-02-12 04:52:00,58.0,-99.9,30.04,NNE,15,21.0,25.0,-999,-99.99,,,-99.99,,2013-02-12 10:52:00,
2013-02-12 05:02:00,58.0,-99.9,30.04,NNE,20,21.0,24.0,-999,-99.99,,,-99.99,,2013-02-12 11:02:00,
2013-02-12 05:11:00,58.0,-99.9,30.04,NNE,17,21.0,23.0,-999,-99.99,,,-99.99,,2013-02-12 11:11:00,
2013-02-12 05:22:00,58.0,-99.9,30.03,NNE,25,21.0,22.0,-999,-99.99,,,-99.99,,2013-02-12 11:22:00,
2013-02-12 05:32:00,58.0,-99.9,30.02,NNE,32,18.0,21.0,-999,-99.99,,,-99.99,,2013-02-12 11:32:00,
2013-02-12 05:42:00,59.0,-99.9,30.02,NE,42,18.0,21.0,-999,-99.99,,,-99.99,,2013-02-12 11:42:00,
2013-02-12 05:53:00,59.0,-99.9,30.02,NE,43,17.0,19.0,-999,-99.99,,,-99.99,,2013-02-12 11:53:00,
2013-02-12 06:02:00,59.0,-99.9,30.02,NE,41,16.0,19.0,-999,-99.99,,,-99.99,,2013-02-12 12:02:00,
2013-02-12 06:11:00,59.0,-99.9,30.02,NE,41,16.0,18.0,-999,-99.99,,,-99.99,,2013-02-12 12:11:00,
2013-02-12 06:22:00,59.0,-99.9,30.02,NE,41,14.0,17.0,-999,-99.99,,,-99.99,,2013-02-12 12:22:00,
2013-02-12 06:32:00,59.0,-99.9,30.02,NE,44,14.0,17.0,-999,-99.99,,,-99.99,,2013-02-12 12:32:00,
2013-02-12 06:42:00,59.0,-99.9,30.02,NE,39,14.0,16.0,-999,-99.99,,,-99.99,,2013-02-12 12:42:00,
2013-02-12 06:53:00,59.0,-99.9,30.01,NE,48,15.0,18.0,-999,-99.99,,,-99.99,,2013-02-12 12:53:00,
2013-02-12 07:02:00,59.0,-99.9,30.01,NE,46,15.0,17.0,-999,-99.99,,,-99.99,,2013-02-12 13:02:00,
2013-02-12 07:11:00,59.0,-99.9,30.01,NE,46,17.0,18.0,-999,-99.99,,,-99.99,,2013-02-12 13:11:00,
2013-02-12 07:22:00,59.0,-99.9,30.02,NE,41,14.0,16.0,-999,-99.99,,,-99.99,,2013-02-12 13:22:00,
2013-02-12 07:32:00,59.0,-99.9,30.02,NE,52,13.0,15.0,-999,-99.99,,,-99.99,,2013-02-12 13:32:00,
2013-02-12 07:42:00,59.0,-99.9,30.02,NE,48,14.0,17.0,-999,-99.99,,,-99.99,,2013-02-12 13:42:00,
2013-02-12 07:52:00,59.0,-99.9,30.02,NE,53,16.0,18.0,-999,-99.99,,,-99.99,,2013-02-12 13:52:00,
2013-02-12 08:01:00,59.0,-99.9,30.01,NE,55,13.0,16.0,-999,-99.99,,,-99.99,,2013-02-12 14:01:00,
2013-02-12 08:12:00,59.0,-99.9,30.00,ENE,64,15.0,18.0,-999,-99.99,,,-99.99,,2013-02-12 14:12:00,
2013-02-12 08:22:00,59.0,-99.9,30.00,ENE,65,16.0,17.0,-999,-99.99,,,-99.99,,2013-02-12 14:22:00,
2013-02-12 08:32:00,60.0,-99.9,30.00,ENE,75,16.0,19.0,-999,-99.99,,,-99.99,,2013-02-12 14:32:00,
2013-02-12 08:42:00,60.0,-99.9,30.00,ENE,75,16.0,19.0,-999,-99.99,,,-99.99,,2013-02-12 14:42:00,
2013-02-12 08:52:00,59.0,-99.9,29.99,ENE,69,18.0,20.0,-999,-99.99,,,-99.99,,2013-02-12 14:52:00,
2013-02-12 09:02:00,60.0,-99.9,30.00,ENE,78,18.0,21.0,-999,-99.99,,,-99.99,,2013-02-12 15:02:00,
2013-02-12 09:11:00,60.0,-99.9,30.00,East,79,18.0,20.0,-999,-99.99,,,-99.99,,2013-02-12 15:11:00,
2013-02-12 09:22:00,60.0,-99.9,30.00,ENE,73,15.0,19.0,-999,-99.99,,,-99.99,,2013-02-12 15:22:00,
2013-02-12 09:32:00,60.0,-99.9,29.99,ENE,75,15.0,20.0,-999,-99.99,,,-99.99,,2013-02-12 15:32:00,
2013-02-12 09:42:00,60.0,-99.9,29.99,East,83,16.0,19.0,-999,-99.99,,,-99.99,,2013-02-12 15:42:00,
2013-02-12 09:52:00,60.0,-99.9,30.00,ENE,72,17.0,18.0,-999,-99.99,,,-99.99,,2013-02-12 15:52:00,
2013-02-12 10:02:00,61.0,-99.9,30.00,ENE,74,15.0,18.0,-999,-99.99,,,-99.99,,2013-02-12 16:02:00,
2013-02-12 10:11:00,61.0,-99.9,30.00,ENE,78,15.0,17.0,-999,-99.99,,,-99.99,,2013-02-12 16:11:00,
2013-02-12 10:22:00,61.0,-99.9,30.00,East,82,15.0,18.0,-999,-99.99,,,-99.99,,2013-02-12 16:22:00,
2013-02-12 10:32:00,61.0,-99.9,29.99,East,84,17.0,18.0,-999,-99.99,,,-99.99,,2013-02-12 16:32:00,
2013-02-12 10:42:00,62.0,-99.9,29.99,East,87,15.0,18.0,-999,-99.99,,,-99.99,,2013-02-12 16:42:00,
2013-02-12 10:52:00,62.0,-99.9,29.98,East,84,15.0,17.0,-999,-99.99,,,-99.99,,2013-02-12 16:52:00,
2013-02-12 11:01:00,62.0,-99.9,29.97,East,91,14.0,20.0,-999,-99.99,,,-99.99,,2013-02-12 17:01:00,
2013-02-12 11:12:00,62.0,-99.9,29.97,East,93,13.0,15.0,-999,-99.99,,,-99.99,,2013-02-12 17:12:00,
2013-02-12 11:21:00,62.0,-99.9,29.96,East,99,18.0,27.0,-999,-99.99,,,-99.99,,2013-02-12 17:21:00,
2013-02-12 11:32:00,62.0,-99.9,29.95,East,96,24.0,27.0,-999,-99.99,,,-99.99,,2013-02-12 17:32:00,
2013-02-12 11:42:00,62.0,-99.9,29.94,East,95,25.0,29.0,-999,-99.99,,,-99.99,,2013-02-12 17:42:00,
2013-02-12 11:52:00,62.0,-99.9,29.94,East,101,25.0,27.0,-999,-99.99,,,-99.99,,2013-02-12 17:52:00,
2013-02-12 12:02:00,62.0,-99.9,29.93,East,101,23.0,26.0,-999,-99.99,,,-99.99,,2013-02-12 18:02:00,
2013-02-12 12:12:00,62.0,-99.9,29.93,East,101,23.0,28.0,-999,-99.99,,,-99.99,,2013-02-12 18:12:00,
2013-02-12 12:23:00,63.0,-99.9,29.93,ESE,104,22.0,30.0,-999,-99.99,,,-99.99,,2013-02-12 18:23:00,
2013-02-12 12:32:00,62.0,-99.9,29.91,ESE,105,26.0,30.0,-999,-99.99,,,-99.99,,2013-02-12 18:32:00,
2013-02-12 12:42:00,63.0,-99.9,29.91,ESE,109,26.0,28.0,-999,-99.99,,,-99.99,,2013-02-12 18:42:00,
2013-02-12 12:52:00,63.0,-99.9,29.91,ESE,106,24.0,27.0,-999,-99.99,,,-99.99,,2013-02-12 18:52:00,
2013-02-12 13:02:00,63.0,-99.9,29.88,ESE,107,24.0,27.0,-999,-99.99,,,-99.99,,2013-02-12 19:02:00,
2013-02-12 13:11:00,64.0,-99.9,29.88,ESE,110,23.0,26.0,-999,-99.99,,,-99.99,,2013-02-12 19:11:00,
2013-02-12 13:22:00,64.0,-99.9,29.87,ESE,107,25.0,27.0,-999,-99.99,,,-99.99,,2013-02-12 19:22:00,
2013-02-12 13:32:00,64.0,-99.9,29.85,ESE,108,22.0,24.0,-999,-99.99,,,-99.99,,2013-02-12 19:32:00,
2013-02-12 13:42:00,64.0,-99.9,29.85,ESE,109,21.0,25.0,-999,-99.99,,,-99.99,,2013-02-12 19:42:00,
2013-02-12 13:52:00,64.0,-99.9,29.83,ESE,106,22.0,26.0,-999,-99.99,,,-99.99,,2013-02-12 19:52:00,
2013-02-12 14:01:00,65.0,-99.9,29.82,ESE,111,23.0,26.0,-999,-99.99,,,-99.99,,2013-02-12 20:01:00,
2013-02-12 14:11:00,64.0,-99.9,29.82,ESE,117,23.0,24.0,-999,-99.99,,,-99.99,,2013-02-12 20:11:00,
2013-02-12 14:22:00,65.0,-99.9,29.82,SE,130,21.0,26.0,-999,-99.99,,,-99.99,,2013-02-12 20:22:00,
2013-02-12 14:32:00,66.0,-99.9,29.82,SE,136,22.0,26.0,-999,-99.99,,,-99.99,,2013-02-12 20:32:00,
2013-02-12 14:42:00,66.0,-99.9,29.82,SE,142,17.0,23.0,-999,-99.99,,,-99.99,,2013-02-12 20:42:00,
2013-02-12 14:52:00,66.0,-99.9,29.81,SE,136,23.0,26.0,-999,-99.99,,,-99.99,,2013-02-12 20:52:00,
2013-02-12 15:02:00,66.0,-99.9,29.80,SE,143,20.0,22.0,-999,-99.99,,,-99.99,,2013-02-12 21:02:00,
2013-02-12 15:11:00,66.0,-99.9,29.81,SSE,153,16.0,26.0,-999,-99.99,,,-99.99,,2013-02-12 21:11:00,
2013-02-12 15:21:00,66.0,-99.9,29.81,SSE,162,17.0,22.0,-999,-99.99,,,-99.99,,2013-02-12 21:21:00,
2013-02-12 15:32:00,67.0,-99.9,29.81,South,172,15.0,19.0,-999,-99.99,,,-99.99,,2013-02-12 21:32:00,
2013-02-12 15:42:00,67.0,-99.9,29.81,South,175,15.0,19.0,-999,-99.99,,,-99.99,,2013-02-12 21:42:00,
2013-02-12 15:52:00,67.0,-99.9,29.81,South,181,17.0,20.0,-999,-99.99,,,-99.99,,2013-02-12 21:52:00,
2013-02-12 16:02:00,67.0,-99.9,29.81,South,184,15.0,19.0,-999,-99.99,,,-99.99,,2013-02-12 22:02:00,
2013-02-12 16:12:00,67.0,-99.9,29.81,South,185,14.0,19.0,-999,-99.99,,,-99.99,,2013-02-12 22:12:00,
2013-02-12 16:22:00,67.0,-99.9,29.81,South,189,10.0,14.0,-999,-99.99,,,-99.99,,2013-02-12 22:22:00,
2013-02-12 16:32:00,67.0,-99.9,29.81,SSW,194,8.0,13.0,-999,-99.99,,,-99.99,,2013-02-12 22:32:00,
2013-02-12 16:42:00,67.0,-99.9,29.80,SSW,196,8.0,15.0,-999,-99.99,,,-99.99,,2013-02-12 22:42:00,
2013-02-12 16:52:00,67.0,-99.9,29.80,South,190,9.0,15.0,-999,-99.99,,,-99.99,,2013-02-12 22:52:00,
2013-02-12 17:02:00,68.0,-99.9,29.81,SSW,195,8.0,15.0,-999,-99.99,,,-99.99,,2013-02-12 23:02:00,
2013-02-12 17:12:00,68.0,-99.9,29.81,SSW,194,8.0,15.0,-999,-99.99,,,-99.99,,2013-02-12 23:12:00,
2013-02-12 17:22:00,67.0,-99.9,29.81,South,184,8.0,16.0,-999,-99.99,,,-99.99,,2013-02-12 23:22:00,
2013-02-12 17:32:00,68.0,-99.9,29.80,South,186,11.0,15.0,-999,-99.99,,,-99.99,,2013-02-12 23:32:00,
2013-02-12 17:42:00,67.0,-99.9,29.80,South,186,11.0,15.0,-999,-99.99,,,-99.99,,2013-02-12 23:42:00,
2013-02-12 17:52:00,67.0,-99.9,29.80,SSW,192,8.0,13.0,-999,-99.99,,,-99.99,,2013-02-12 23:52:00,
2013-02-12 18:02:00,67.0,-99.9,29.80,SSW,199,7.0,11.0,-999,-99.99,,,-99.99,,2013-02-13 00:02:00,
2013-02-12 18:11:00,67.0,-99.9,29.80,SSW,196,6.0,14.0,-999,-99.99,,,-99.99,,2013-02-13 00:11:00,
2013-02-12 18:22:00,67.0,-99.9,29.81,SSW,207,6.0,15.0,-999,-99.99,,,-99.99,,2013-02-13 00:22:00,
2013-02-12 18:32:00,68.0,-99.9,29.81,SSW,209,9.0,16.0,-999,-99.99,,,-99.99,,2013-02-13 00:32:00,
2013-02-12 18:42:00,68.0,-99.9,29.80,SSW,212,11.0,16.0,-999,-99.99,,,-99.99,,2013-02-13 00:42:00,
2013-02-12 18:52:00,68.0,-99.9,29.80,SSW,207,9.0,15.0,-999,-99.99,,,-99.99,,2013-02-13 00:52:00,
2013-02-12 19:01:00,68.0,-99.9,29.80,SSW,209,9.0,17.0,-999,-99.99,,,-99.99,,2013-02-13 01:01:00,
2013-02-12 19:11:00,68.0,-99.9,29.80,SSW,210,11.0,17.0,-999,-99.99,,,-99.99,,2013-02-13 01:11:00,
2013-02-12 19:21:00,68.0,-99.9,29.81,SW,219,9.0,16.0,-999,-99.99,,,-99.99,,2013-02-13 01:21:00,
2013-02-12 19:32:00,69.0,-99.9,29.81,SW,224,15.0,19.0,-999,-99.99,,,-99.99,,2013-02-13 01:32:00,
2013-02-12 19:42:00,69.0,-99.9,29.81,SW,219,12.0,17.0,-999,-99.99,,,-99.99,,2013-02-13 01:42:00,
2013-02-12 19:52:00,68.0,-99.9,29.81,SW,216,8.0,13.0,-999,-99.99,,,-99.99,,2013-02-13 01:52:00,
2013-02-12 20:01:00,68.0,-99.9,29.81,SW,222,13.0,17.0,-999,-99.99,,,-99.99,,2013-02-13 02:01:00,
2013-02-12 20:11:00,67.0,-99.9,29.82,SW,227,13.0,17.0,-999,-99.99,,,-99.99,,2013-02-13 02:11:00,
2013-02-12 20:22:00,67.0,-99.9,29.81,SW,224,13.0,17.0,-999,-99.99,,,-99.99,,2013-02-13 02:22:00,
2013-02-12 20:32:00,67.0,-99.9,29.82,SW,230,9.0,13.0,-999,-99.99,,,-99.99,,2013-02-13 02:32:00,
2013-02-12 20:42:00,67.0,-99.9,29.82,SW,230,10.0,15.0,-999,-99.99,,,-99.99,,2013-02-13 02:42:00,
2013-02-12 20:52:00,67.0,-99.9,29.82,SW,225,15.0,18.0,-999,-99.99,,,-99.99,,2013-02-13 02:52:00,
2013-02-12 21:02:00,67.0,-99.9,29.82,SW,232,9.0,15.0,-999,-99.99,,,-99.99,,2013-02-13 03:02:00,
2013-02-12 21:12:00,67.0,-99.9,29.83,SW,230,11.0,16.0,-999,-99.99,,,-99.99,,2013-02-13 03:12:00,
2013-02-12 21:22:00,67.0,-99.9,29.83,SW,227,12.0,15.0,-999,-99.99,,,-99.99,,2013-02-13 03:22:00,
2013-02-12 21:32:00,67.0,-99.9,29.83,SW,229,10.0,14.0,-999,-99.99,,,-99.99,,2013-02-13 03:32:00,
2013-02-12 21:42:00,67.0,-99.9,29.83,SW,236,6.0,11.0,-999,-99.99,,,-99.99,,2013-02-13 03:42:00,
2013-02-12 21:52:00,66.0,-99.9,29.83,WSW,242,8.0,12.0,-999,-99.99,,,-99.99,,2013-02-13 03:52:00,
2013-02-12 22:01:00,66.0,-99.9,29.82,SW,235,7.0,11.0,-999,-99.99,,,-99.99,,2013-02-13 04:01:00,
2013-02-12 22:11:00,66.0,-99.9,29.83,WSW,247,8.0,11.0,-999,-99.99,,,-99.99,,2013-02-13 04:11:00,
2013-02-12 22:21:00,67.0,-99.9,29.83,WSW,237,8.0,12.0,-999,-99.99,,,-99.99,,2013-02-13 04:21:00,
2013-02-12 22:32:00,66.0,-99.9,29.83,SW,233,5.0,11.0,-999,-99.99,,,-99.99,,2013-02-13 04:32:00,
2013-02-12 22:42:00,66.0,-99.9,29.82,SW,232,8.0,11.0,-999,-99.99,,,-99.99,,2013-02-13 04:42:00,
2013-02-12 22:52:00,66.0,-99.9,29.81,SW,226,11.0,14.0,-999,-99.99,,,-99.99,,2013-02-13 04:52:00,
2013-02-12 23:02:00,66.0,-99.9,29.82,SW,229,10.0,15.0,-999,-99.99,,,-99.99,,2013-02-13 05:02:00,
2013-02-12 23:12:00,66.0,-99.9,29.82,SW,236,7.0,12.0,-999,-99.99,,,-99.99,,2013-02-13 05:12:00,
2013-02-12 23:22:00,66.0,-99.9,29.83,WSW,240,6.0,12.0,-999,-99.99,,,-99.99,,2013-02-13 05:22:00,
2013-02-12 23:32:00,66.0,-99.9,29.83,WSW,244,6.0,11.0,-999,-99.99,,,-99.99,,2013-02-13 05:32:00,
2013-02-12 23:42:00,66.0,-99.9,29.83,WSW,237,6.0,13.0,-999,-99.99,,,-99.99,,2013-02-13 05:42:00,
2013-02-12 23:52:00,66.0,-99.9,29.83,WSW,242,8.0,12.0,-999,-99.99,,,-99.99,,2013-02-13 05:52:00,